Location: Kermapucano
(48.0667°N, 3.3000°W)
Time: 19:44:57
(UTC+00:00)

COSMOS 2455 - Pass Details

Date: 29 November 2020
Orbit: 900 x 909 km, 67.1° (Epoch: 27 January)

Event Time Altitude Azimuth Distance (km) Brightness Sun altitude
Rises 06:00:26 0° 196° (SSW) 3,516 5.9 -16.1°
Reaches altitude 10° 06:02:58 10° 192° (SSW) 2,580 5.3 -15.6°
Maximum altitude 06:08:46 54° 116° (ESE) 1,089 3.7 -14.7°
Drops below altitude 10° 06:14:38 10° 41° (NE) 2,601 5.6 -13.8°
Sets 06:17:11 0° 37° (NE) 3,548 6.2 -13.4°
